This is the latest recevied weather packets stored in our database for station/object SP9POL-3. If no packets are shown the sender has not sent any weather packets the latest 10 day(s).
| Time | Temp. | Humidity | Pressure | Rain* | Wind** | Luminosity | Snow |
|---|---|---|---|---|---|---|---|
| 1777896602 | 25.56° C | 20% | 1011.2 hPa | - | - | - | - |
| 1777894922 | 25° C | 20% | 1011.4 hPa | - | - | - | - |
| 1777893242 | 24.44° C | 21% | 1011.5 hPa | - | - | - | - |
| 1777891561 | 22.22° C | 24% | 1011.8 hPa | - | - | - | - |
| 1777889881 | 21.11° C | 25% | 1011.9 hPa | - | - | - | - |
| 1777888201 | 20° C | 26% | 1012.3 hPa | - | - | - | - |
| 1777886521 | 19.44° C | 27% | 1012.6 hPa | - | - | - | - |
| 1777884841 | 18.33° C | 28% | 1012.5 hPa | - | - | - | - |
| 1777883161 | 17.78° C | 29% | 1012.7 hPa | - | - | - | - |
| 1777881481 | 17.22° C | 30% | 1012.8 hPa | - | - | - | - |
| 1777879801 | 16.67° C | 31% | 1012.8 hPa | - | - | - | - |
| 1777878120 | 16.11° C | 32% | 1012.9 hPa | - | - | - | - |
| 1777876440 | 15.56° C | 32% | 1012.9 hPa | - | - | - | - |
| 1777874759 | 14.44° C | 34% | 1013 hPa | - | - | - | - |
| 1777873078 | 13.33° C | 37% | 1012.8 hPa | - | - | - | - |
| 1777871398 | 12.22° C | 41% | 1012.9 hPa | - | - | - | - |
| 1777869718 | 11.67° C | 43% | 1012.8 hPa | - | - | - | - |
| 1777868038 | 11.11° C | 44% | 1012.9 hPa | - | - | - | - |
| 1777866358 | 11.11° C | 44% | 1012.9 hPa | - | - | - | - |
| 1777864678 | 11.11° C | 44% | 1012.8 hPa | - | - | - | - |
| 1777862998 | 11.11° C | 44% | 1012.9 hPa | - | - | - | - |
| 1777861317 | 11.67° C | 44% | 1012.9 hPa | - | - | - | - |
| 1777859636 | 11.67° C | 43% | 1012.9 hPa | - | - | - | - |
| 1777857956 | 12.22° C | 42% | 1012.8 hPa | - | - | - | - |
| 1777856275 | 12.78° C | 41% | 1012.9 hPa | - | - | - | - |
* Rain since midnight (hover to see other rain measurements)
** Current wind speed in m/s (hover to see current wind gust speed)